Torna al catalogo

METEOR 2-11 DEB

AttivoPO
NORAD 60006·DEBRIS·🇷🇺 Russia

Lanciato Jul 5, 1984 da Plesetsk Cosmodrome

Loading…

Prossimi Passaggi (prossime 24 ore)

TLE

In scadenzaSource: Space-Track

Epoca: Sep 5, 2026, 10:47 UTC

1 60006U 84072AB  26248.44999367  .00000593  00000-0  39800-3 0  9996
2 60006  82.5572 302.7521 0018702  34.0213 326.2150 13.99200278441924

Traccia METEOR 2-11 DEB in tempo reale con AllMySat

Download on the App Store